Flag for Canada Weather past 2 weeks in Prince Albert, Saskatchewan, Canada

Now
18 °F

Light snow. Overcast.


Feels Like: 8 °F
Forecast: 15 / 21 °F
Wind: 7 mph from Southwest

Location: Prince Albert

Current Time: Dec 17, 2014 at 8:54:43 PM

Latest Report: Dec 17, 2014 at 8:00 PM


Visibility: 15 mi

Pressure: 30.13 "Hg

Humidity: 86%

Dew point: 14 °F

Location of Prince AlbertLocation

Historic Weather in Prince Albert — Graph

°F

Prince Albert temperature yesterday

Maximum temperature yesterday: 23 °F (at 7:00 AM)
Minimum temperature yesterday: 19 °F (at 12:00 AM)
Average temperature yesterday: 21 °F

Past Weeks' High & Low Weather Summary

 TemperatureHumidityPressure
High43 °F (Dec 11, 2:00 PM)100% (Dec 5, 8:00 AM)30.46 "Hg (Dec 5, 8:00 AM)
Low-22 °F (Dec 3, 8:00 AM)66% (Dec 11, 2:00 PM)29.53 "Hg (Dec 11, 1:00 PM)
Average18 °F88%30.08 "Hg
* Reported Dec 2 7:00 PM — Dec 17 7:00 PM, Prince Albert, Weather by CustomWeather, © 2014

Note: Actual official high and low records may vary slightly from our data, if they occured in-between our weather recording intervals... More about our weather records

Advertising

Prince Albert weather history for previous 24 hours

 ConditionsComfort  
Time TempWeatherWind HumidityBarometerVisibility
7:00 PM
Dec 17
18 °FLight snow. Overcast.12 mph86%30.14 "Hg15 mi
6:00 PM18 °FLight snow. Overcast.8 mph86%30.14 "Hg15 mi
5:00 PM18 °FLight snow. Overcast.9 mph86%30.14 "Hg12 mi
4:00 PM18 °FOvercast.12 mph86%30.16 "Hg15 mi
3:00 PM19 °FOvercast.9 mph79%30.16 "Hg15 mi
2:00 PM18 °FOvercast.8 mph86%30.16 "Hg15 mi
1:00 PM18 °FLight snow. Low clouds.12 mph93%30.19 "Hg15 mi
12:00 PM18 °FLight snow. Low clouds.10 mph86%30.20 "Hg15 mi
11:00 AM18 °FLight snow. Low clouds.10 mph93%30.21 "Hg15 mi
10:00 AM19 °FLight snow. Low clouds.9 mph86%30.21 "Hg15 mi
9:00 AM18 °FLight snow. Low clouds.12 mph93%30.21 "Hg15 mi
8:00 AM19 °FLight snow. Overcast.8 mph86%30.22 "Hg10 mi
7:00 AM19 °FLight snow. Overcast.8 mph86%30.22 "Hg10 mi
6:00 AM19 °FLight snow. Overcast.7 mph86%30.23 "Hg15 mi
5:00 AM19 °FOvercast.7 mph86%30.23 "Hg15 mi
4:00 AM19 °FOvercast.7 mph86%30.25 "Hg15 mi
3:00 AM19 °FOvercast.7 mph86%30.26 "Hg15 mi
2:00 AM19 °FOvercast.7 mph86%30.27 "Hg15 mi
1:00 AM19 °FLight snow. Overcast.8 mph86%30.28 "Hg15 mi
12:00 AM19 °FLight snow. Overcast.8 mph86%30.28 "Hg15 mi
11:00 PM
Dec 16
19 °FLight snow. Overcast.7 mph86%30.29 "Hg15 mi
10:00 PM19 °FLight snow. Overcast.9 mph86%30.30 "Hg15 mi
9:00 PM19 °FLight snow. Overcast.10 mph86%30.30 "Hg15 mi
8:00 PM19 °FLight snow. Overcast.7 mph86%30.30 "Hg15 mi
Weather by CustomWeather, © 2014

See weather overviewHow to use our weather pages